When you browse on this site, cookies collect data to enhance your experience and personalize the content and advertising you see.
Visit our Privacy Policy to learn more. By continuing to use the site, you agree to this use of cookies and data.
  • In Lithuania
  • List of Countries
  • For 7 days
  • Water Temperature
  • Satellite Maps
  • Weather Map
  • Weather Widgets
  • user-avatar
    Login

    Hourly Weather Niedanow

    Today, 22 February, Friday

    Time Temperature Precipitation Wind Pressure Humidity
    00:00 +5°C° 1.1 mm 5 mps 750 mmHg 90%
    01:00 +5°C° 0 mm 4 mps 751 mmHg 91%
    02:00 +5°C° 0.7 mm 4 mps 751 mmHg 92%
    03:00 +5°C° 0.7 mm 5 mps 751 mmHg 93%
    04:00 +5°C° 0.7 mm 5 mps 751 mmHg 94%
    05:00 +3°C° 0.2 mm 6 mps 752 mmHg 90%
    06:00 +2°C° 0.2 mm 6 mps 753 mmHg 87%
    07:00 0°C° 0.2 mm 7 mps 754 mmHg 84%
    08:00 -1°C° 0 mm 6 mps 756 mmHg 79%
    09:00 -2°C° 0 mm 6 mps 757 mmHg 75%
    10:00 -2°C° 0 mm 6 mps 758 mmHg 70%
    11:00 -2°C° 0 mm 6 mps 759 mmHg 63%
    12:00 -1°C° 0 mm 6 mps 760 mmHg 56%
    13:00 -1°C° 0 mm 6 mps 761 mmHg 49%
    14:00 -1°C° 0 mm 6 mps 761 mmHg 48%
    15:00 -1°C° 0 mm 5 mps 762 mmHg 47%
    16:00 -1°C° 0 mm 5 mps 762 mmHg 46%
    17:00 -2°C° 0 mm 4 mps 763 mmHg 50%
    18:00 -3°C° 0 mm 4 mps 764 mmHg 54%
    19:00 -4°C° 0 mm 3 mps 764 mmHg 58%
    20:00 -4°C° 0 mm 3 mps 765 mmHg 57%
    21:00 -4°C° 0 mm 3 mps 766 mmHg 57%
    22:00 -3°C° 0 mm 2 mps 766 mmHg 56%
    23:00 -3°C° 0 mm 2 mps 767 mmHg 54%

    Tomorrow, 23 February, Saturday

    Time Temperature Precipitation Wind Pressure Humidity
    00:00 -3°C° 0 mm 2 mps 767 mmHg 51%
    01:00 -3°C° 0 mm 2 mps 767 mmHg 49%
    02:00 -4°C° 0 mm 2 mps 767 mmHg 47%
    03:00 -2°C° 0 mm 1 mps 767 mmHg 46%
    04:00 -2°C° 0 mm 1 mps 767 mmHg 45%
    05:00 -2°C° 0 mm 1 mps 767 mmHg 45%
    06:00 -2°C° 0 mm 1 mps 767 mmHg 44%
    07:00 -2°C° 0 mm 1 mps 767 mmHg 44%
    08:00 -2°C° 0 mm 1 mps 767 mmHg 40%
    09:00 -1°C° 0 mm 1 mps 767 mmHg 35%
    10:00 -2°C° 0 mm 2 mps 768 mmHg 31%
    11:00 -1°C° 0 mm 2 mps 767 mmHg 29%
    12:00 +1°C° 0 mm 2 mps 767 mmHg 26%
    13:00 +1°C° 0 mm 2 mps 767 mmHg 24%
    14:00 +2°C° 0 mm 1 mps 767 mmHg 25%
    15:00 +2°C° 0 mm 1 mps 766 mmHg 26%
    16:00 +2°C° 0 mm 1 mps 766 mmHg 27%
    17:00 +2°C° 0 mm 1 mps 766 mmHg 31%
    18:00 +1°C° 0 mm 1 mps 766 mmHg 34%
    19:00 -2°C° 0 mm 2 mps 766 mmHg 37%
    20:00 -3°C° 0 mm 2 mps 766 mmHg 38%
    21:00 -3°C° 0 mm 2 mps 766 mmHg 39%
    22:00 -1°C° 0 mm 1 mps 766 mmHg 40%
    23:00 -1°C° 0 mm 1 mps 766 mmHg 39%

    Day after tomorrow, 24 February, Sunday

    Time Temperature Precipitation Wind Pressure Humidity
    00:00 -1°C° 0 mm 1 mps 765 mmHg 38%
    01:00 -1°C° 0 mm 1 mps 765 mmHg 38%
    02:00 0°C° 0 mm 1 mps 765 mmHg 36%
    03:00 0°C° 0 mm 1 mps 765 mmHg 35%
    04:00 0°C° 0 mm 1 mps 765 mmHg 34%
    05:00 0°C° 0 mm 1 mps 765 mmHg 33%
    06:00 0°C° 0 mm 1 mps 765 mmHg 33%
    07:00 0°C° 0 mm 1 mps 764 mmHg 32%
    08:00 +2°C° 0 mm 1 mps 765 mmHg 29%
    09:00 +3°C° 0 mm 1 mps 765 mmHg 26%
    10:00 +4°C° 0 mm 1 mps 765 mmHg 23%
    11:00 +5°C° 0 mm 1 mps 765 mmHg 23%
    12:00 +6°C° 0 mm 2 mps 765 mmHg 22%
    13:00 +7°C° 0 mm 2 mps 764 mmHg 21%
    14:00 +7°C° 0 mm 2 mps 764 mmHg 28%
    15:00 +6°C° 0 mm 2 mps 764 mmHg 34%
    16:00 +7°C° 0 mm 1 mps 764 mmHg 40%
    17:00 +5°C° 0 mm 1 mps 764 mmHg 42%
    18:00 +4°C° 0 mm 1 mps 764 mmHg 44%
    19:00 +3°C° 0 mm 1 mps 764 mmHg 46%
    20:00 +3°C° 0 mm 1 mps 764 mmHg 47%
    21:00 +1°C° 0 mm 2 mps 764 mmHg 49%
    22:00 +1°C° 0 mm 2 mps 764 mmHg 51%
    23:00 +1°C° 0 mm 2 mps 765 mmHg 52%

    25 February, Monday

    Time Temperature Precipitation Wind Pressure Humidity
    00:00 +1°C° 0 mm 2 mps 765 mmHg 53%
    01:00 +1°C° 0 mm 2 mps 765 mmHg 54%
    02:00 +1°C° 0 mm 2 mps 765 mmHg 55%
    03:00 +1°C° 0 mm 2 mps 764 mmHg 55%
    04:00 +1°C° 0 mm 2 mps 764 mmHg 56%
    05:00 +1°C° 0 mm 2 mps 764 mmHg 57%
    06:00 +1°C° 0 mm 2 mps 764 mmHg 58%
    07:00 +1°C° 0 mm 2 mps 764 mmHg 58%
    08:00 +1°C° 0 mm 3 mps 764 mmHg 55%
    09:00 +3°C° 0 mm 3 mps 764 mmHg 53%
    10:00 +4°C° 0 mm 3 mps 764 mmHg 50%
    11:00 +5°C° 0 mm 4 mps 764 mmHg 50%
    12:00 +6°C° 0 mm 4 mps 764 mmHg 50%
    13:00 +7°C° 0 mm 4 mps 764 mmHg 50%
    14:00 +7°C° 0 mm 4 mps 763 mmHg 52%
    15:00 +8°C° 0 mm 3 mps 763 mmHg 55%
    16:00 +8°C° 0 mm 3 mps 763 mmHg 58%
    17:00 +7°C° 0 mm 2 mps 763 mmHg 62%
    18:00 +6°C° 0 mm 2 mps 763 mmHg 67%
    19:00 +4°C° 0 mm 2 mps 763 mmHg 72%
    20:00 +4°C° 0 mm 2 mps 763 mmHg 73%
    21:00 +4°C° 0 mm 2 mps 763 mmHg 74%
    22:00 +3°C° 0 mm 2 mps 762 mmHg 75%
    23:00 +3°C° 0 mm 2 mps 762 mmHg 75%

    26 February, Tuesday

    Time Temperature Precipitation Wind Pressure Humidity
    00:00 +3°C° 0 mm 2 mps 762 mmHg 75%
    01:00 +3°C° 0 mm 2 mps 761 mmHg 75%
    02:00 +3°C° 0 mm 2 mps 761 mmHg 75%
    03:00 +2°C° 0 mm 3 mps 760 mmHg 75%
    04:00 +1°C° 0 mm 3 mps 760 mmHg 75%
    05:00 +2°C° 0 mm 3 mps 760 mmHg 76%
    06:00 +2°C° 0 mm 3 mps 759 mmHg 76%
    07:00 +1°C° 0 mm 4 mps 759 mmHg 77%
    08:00 +3°C° 0 mm 5 mps 759 mmHg 71%
    09:00 +4°C° 0 mm 6 mps 759 mmHg 66%
    10:00 +6°C° 0 mm 7 mps 758 mmHg 60%
    11:00 +7°C° 0 mm 6 mps 758 mmHg 60%
    12:00 +7°C° 0 mm 6 mps 758 mmHg 61%
    13:00 +7°C° 0 mm 6 mps 758 mmHg 62%
    14:00 +7°C° 0 mm 5 mps 758 mmHg 64%
    15:00 +7°C° 0 mm 5 mps 758 mmHg 66%
    16:00 +7°C° 0 mm 5 mps 757 mmHg 68%
    17:00 +5°C° 0 mm 5 mps 758 mmHg 74%
    18:00 +4°C° 0 mm 4 mps 758 mmHg 79%
    19:00 +3°C° 0 mm 3 mps 758 mmHg 85%
    20:00 +3°C° 0 mm 3 mps 758 mmHg 87%
    21:00 +2°C° 0 mm 3 mps 759 mmHg 89%
    22:00 +2°C° 0 mm 3 mps 759 mmHg 91%
    23:00 +2°C° 0 mm 3 mps 759 mmHg 92%

    27 February, Wednesday

    Time Temperature Precipitation Wind Pressure Humidity
    00:00 +1°C° 0 mm 3 mps 759 mmHg 92%
    01:00 +1°C° 0 mm 3 mps 759 mmHg 93%
    02:00 +2°C° 0 mm 2 mps 759 mmHg 93%
    03:00 +1°C° 0 mm 2 mps 759 mmHg 92%
    04:00 +1°C° 0 mm 2 mps 759 mmHg 92%
    05:00 +1°C° 0 mm 2 mps 759 mmHg 91%
    06:00 +1°C° 0 mm 2 mps 758 mmHg 90%
    07:00 +2°C° 0 mm 1 mps 758 mmHg 90%
    08:00 +3°C° 0 mm 1 mps 758 mmHg 81%
    09:00 +5°C° 0 mm 1 mps 758 mmHg 72%
    10:00 +7°C° 0 mm 1 mps 758 mmHg 63%
    11:00 +8°C° 0 mm 1 mps 758 mmHg 56%
    12:00 +10°C° 0 mm 1 mps 757 mmHg 49%
    13:00 +10°C° 0 mm 2 mps 757 mmHg 42%
    14:00 +11°C° 0 mm 1 mps 756 mmHg 43%
    15:00 +12°C° 0 mm 1 mps 755 mmHg 43%
    16:00 +12°C° 0 mm 1 mps 755 mmHg 43%
    17:00 +10°C° 0 mm 2 mps 754 mmHg 48%
    18:00 +8°C° 0 mm 2 mps 754 mmHg 52%
    19:00 +7°C° 0 mm 3 mps 753 mmHg 57%
    20:00 +5°C° 0 mm 3 mps 753 mmHg 58%
    21:00 +5°C° 0 mm 3 mps 752 mmHg 60%
    22:00 +5°C° 0 mm 3 mps 752 mmHg 61%
    23:00 +5°C° 0 mm 4 mps 751 mmHg 61%
    Show more